Location: Cambridge
(43.3830°N, 80.3170°W)
Time: 23:28:17
(UTC-05:00)

Envisat - Pass Details

Date: 31 October 2019
Orbit: 764 x 766 km, 98.1° (Epoch: 12 November)

Event Time Altitude Azimuth Distance (km) Brightness Sun altitude
Rises 20:00:38 0° 187° (S) 3,217 6.3 -19.8°
Reaches altitude 10° 20:03:04 10° 195° (SSW) 2,295 5.6 -20.3°
Maximum altitude 20:07:45 38° 263° (W) 1,165 4.5 -21.1°
Drops below altitude 10° 20:12:29 10° 331° (NNW) 2,310 5.8 -22.0°
Sets 20:14:57 0° 339° (NNW) 3,241 6.5 -22.4°
